Group_ship,Cruise,JD_GMT,Date_DDMMYYYY,TIME_HH:MM:SS,Lat_dec_degree,Long_dec_degree,xCO2eq_ppm,xCO2a_ppm,Pres_Equi_hPa,Pres_sealevel_hPa,EqTemp_C,SST(TSG)_C,Sal(TSG)_Permil,Water_flow_l/min,Gasflow_IR_ml/min,Temp_IR_C,Pres_IR_hPa,Ship_heading_true_degree,Ship_speed_knot,Wind_dir_rel_degree,Wind_speed_rel_m/s,fCO2W@SST_uatm,Qcflag_water,fCO2a_uatm,Qcflag_air,dfCO2_uatm,Fluoro_ug/l,Wind_speed_true_m/s,Wind_dir_true_degree,Air_temp_C,Oxygen
AOML_Explorer,Ex0538E,261.98,18092005,23:31:52,25.986,-79.581,406.89,-9,1014.11,1010.33,29.72,30.23,36.05,1.25,58.88,31.97,1014.11,56.8,23.5,345,20.59,396.58,2,-9,9,-9,0.07,9.08,29.517615,28.99,229.650658
AOML_Explorer,Ex0538E,261.982,18092005,23:34:25,25.995,-79.566,406.04,-9,1014.08,1010.38,29.73,30.24,36.05,1.33,57.83,31.97,1014.08,57.2,23.5,343,22.13,395.63,2,-9,9,-9,0.07,10.82,27.244696,29.07,229.403132
AOML_Explorer,Ex0538E,261.984,18092005,23:36:58,26.004,-79.55,405.43,-9,1014.29,1010.33,29.74,30.22,36.05,1.51,58.78,31.98,1014.29,57.2,23.5,339,22.13,394.85,2,-9,9,-9,0.08,11.26,19.873468,29.08,229.3346
AOML_Explorer,Ex0538E,261.986,18092005,23:39:31,26.013,-79.535,405.01,-9,1014.23,1010.33,29.74,30.18,36.06,1.55,58.34,31.98,1014.23,57.4,23.4,336,21.62,393.92,2,-9,9,-9,0.08,11.32,12.831196,28.74,229.107576
AOML_Explorer,Ex0538E,261.988,18092005,23:42:04,26.022,-79.519,404.93,-9,1014.3,1010.61,29.73,30.12,36.05,1.61,59.45,31.98,1014.3,58.1,23.5,343,20.59,393.12,2,-9,9,-9,0.08,9.47,24.19343,28.75,229.24705
AOML_Explorer,Ex0538E,261.989,18092005,23:44:37,26.031,-79.504,404.76,-9,1014.41,1010.71,29.69,30.05,36.05,1.6,59,31.98,1014.41,58.4,23.3,339,20.07,392.71,2,-9,9,-9,0.08,9.59,14.951029,28.6,229.508391
AOML_Explorer,Ex0538E,261.991,18092005,23:47:10,26.04,-79.488,404.2,-9,1014.5,1010.99,29.63,29.96,36.06,1.57,58.2,31.98,1014.5,58.3,23.3,342,20.07,391.86,2,-9,9,-9,0.07,9.2,20.54107,28.57,229.412303
AOML_Explorer,Ex0538E,261.993,18092005,23:49:43,26.049,-79.473,403.64,-9,1014.43,1010.8,29.56,30.1,36.09,1.62,58.23,31.98,1014.43,57.4,23.3,345,21.1,394.09,2,-9,9,-9,0.09,9.69,30.607355,28.79,228.948746
AOML_Explorer,Ex0538E,261.995,18092005,23:52:16,26.057,-79.458,403.58,-9,1014.51,1010.83,29.54,30.18,36.09,1.62,58.84,31.98,1014.51,57.5,23.4,345,21.1,395.59,2,-9,9,-9,0.08,9.67,30.000221,28.75,228.793114
AOML_Explorer,Ex0538E,261.996,18092005,23:54:49,26.066,-79.442,406.53,-9,1014.44,1010.72,29.65,30.22,36.05,1.61,58.96,31.98,1014.44,57.3,23.3,347,20.59,397.21,2,-9,9,-9,0.08,9.03,33.798155,29.04,229.202965
AOML_Explorer,Ex0538E,261.998,18092005,23:57:22,26.075,-79.427,407.84,-9,1014.5,1010.72,29.7,30.21,36.06,1.65,58.78,31.98,1014.5,57.1,23.4,0,21.62,397.75,2,-9,9,-9,0.09,9.61,64.017658,29.31,229.426997
AOML_Explorer,Ex0538E,262,18092005,23:59:55,26.084,-79.411,407.21,-9,1014.33,1010.66,29.74,30.3,36.06,1.65,57.85,31.98,1014.33,57.4,23.3,355,23.16,397.66,2,-9,9,-9,0.11,11.18,53.172601,29.46,230.114353
AOML_Explorer,Ex0538E,262.013,19092005,0:19:07,26.15,-79.297,405.18,-9,1014.69,1010.67,29.85,30.32,36.02,1.69,58.42,32.05,1014.69,60.7,22.6,357,21.62,394.41,2,-9,9,-9,0.08,9.99,57.605369,29.39,229.236365
AOML_Explorer,Ex0538E,262.015,19092005,0:21:40,26.157,-79.281,405.95,-9,1014.77,1010.81,29.85,30.32,36.02,1.67,58.41,32.05,1014.77,67.6,22.5,353,23.16,395.35,2,-9,9,-9,0.08,11.74,54.11372,29.35,229.103298
AOML_Explorer,Ex0538E,262.017,19092005,0:24:13,26.163,-79.265,406.58,-9,1014.79,1010.77,29.84,30.34,36.02,1.66,58.22,32.05,1014.79,67.4,22.5,352,23.68,396.39,2,-9,9,-9,0.09,12.32,51.593481,29.39,229.110079
AOML_Explorer,Ex0538E,262.019,19092005,0:26:46,26.169,-79.249,406.81,-9,1014.83,1010.91,29.84,30.37,36.03,1.68,58.29,32.06,1014.83,67.1,22.4,355,23.68,396.94,2,-9,9,-9,0.09,12.23,57.65811,29.3,229.015714
AOML_Explorer,Ex0538E,262.02,19092005,0:29:19,26.175,-79.233,407.03,-9,1014.95,1010.64,29.87,30.37,36.04,1.69,58.28,32.06,1014.95,67.6,22.4,359,20.59,396.88,2,-9,9,-9,0.09,9.07,64.260743,29.37,229.021701
AOML_Explorer,Ex0538E,262.022,19092005,0:31:52,26.181,-79.217,407.52,-9,1014.94,1010.76,29.89,30.39,36.03,1.65,58.45,32.07,1014.94,67.5,22.3,353,22.13,397.28,2,-9,9,-9,0.1,10.86,52.10837,29.27,228.92737
AOML_Explorer,Ex0538E,262.024,19092005,0:34:25,26.187,-79.2,407.39,-9,1014.81,1010.81,29.89,30.4,36.05,1.64,115.54,31.97,1014.81,68,22.2,356,22.13,397.15,2,-9,9,-9,0.1,10.79,58.135821,29.23,229.364439
AOML_Explorer,Ex0538E,262.026,19092005,0:36:58,26.193,-79.184,403.26,-9,1014.95,1010.93,29.92,30.36,36.03,1.66,57.92,31.86,1014.95,67.8,22.2,355,22.13,392.24,2,-9,9,-9,0.11,10.84,55.024503,29.28,229.724593
AOML_Explorer,Ex0538E,262.027,19092005,0:39:31,26.199,-79.168,405.58,-9,1015.02,1010.89,29.9,30.32,36.02,1.65,59.05,31.83,1015.02,70.7,22.2,351,21.62,394.31,2,-9,9,-9,0.1,10.52,50.891373,29.27,229.661122
AOML_Explorer,Ex0538E,262.029,19092005,0:42:04,26.204,-79.152,406.7,-9,1015.02,1010.88,29.87,30.29,36.01,1.66,58.57,31.81,1015.02,72.7,22.3,350,22.13,395.33,2,-9,9,-9,0.1,11.11,49.561346,29.28,229.724606
AOML_Explorer,Ex0538E,262.031,19092005,0:44:37,26.209,-79.135,407.02,-9,1015.1,1010.96,29.84,30.25,36.02,1.67,57.03,31.81,1015.1,72.4,22.2,352,22.13,395.59,2,-9,9,-9,0.1,10.99,54.160493,29.3,229.674502
AOML_Explorer,Ex0538E,262.033,19092005,0:47:10,26.214,-79.118,406.44,-9,1014.97,1010.6,29.8,30.22,36.05,1.67,58.01,31.82,1014.97,72.2,22.4,347,22.65,395.25,2,-9,9,-9,0.09,11.84,44.692532,29.31,229.793154
AOML_Explorer,Ex0538E,262.035,19092005,0:49:43,26.218,-79.102,405.84,-9,1015.33,1011.19,29.78,30.12,36.08,1.67,58.74,31.82,1015.33,72.7,22.3,351,22.65,393.69,2,-9,9,-9,0.09,11.54,52.057705,29.3,229.917906
AOML_Explorer,Ex0538E,262.036,19092005,0:52:16,26.223,-79.085,405.67,-9,1015.13,1011.04,29.73,29.92,36.09,1.66,57.84,31.83,1015.13,74.5,22.3,341,21.62,391.56,2,-9,9,-9,0.11,11.44,35.695472,29.27,229.579306
AOML_Explorer,Ex0538E,262.038,19092005,0:54:49,26.227,-79.068,405.18,-9,1015.05,1010.91,29.58,29.91,36.09,1.68,58.12,31.85,1015.05,80.1,22.1,338,22.13,392.92,2,-9,9,-9,0.1,12.45,36.635208,29.25,229.397681
AOML_Explorer,Ex0538E,262.04,19092005,0:57:22,26.229,-79.051,404.43,-9,1015.2,1011.16,29.49,29.94,36.08,1.67,58.07,31.86,1015.2,86.3,21.9,332,21.62,394.14,2,-9,9,-9,0.1,12.95,32.941942,29.23,229.542118
AOML_Explorer,Ex0538E,262.042,19092005,0:59:55,26.229,-79.034,403.35,-9,1015.29,1010.97,29.49,29.96,36.09,1.68,58.15,31.88,1015.29,91.8,21.8,335,21.62,393.36,2,-9,9,-9,0.11,12.52,42.891802,29.19,229.651653
AOML_Explorer,Ex0538E,262.055,19092005,1:19:07,26.222,-78.904,401.23,-9,1014.82,1010.94,29.45,29.88,36.09,1.68,57.96,32.02,1014.82,101.6,22.2,324,22.65,390.56,2,-9,9,-9,0.09,15.37,36.191439,28.98,230.041768
AOML_Explorer,Ex0538E,262.057,19092005,1:21:40,26.218,-78.887,401.12,-9,1014.62,1010.81,29.46,29.9,36.08,1.67,57.22,32.03,1014.62,106.2,22.3,325,22.65,390.5,2,-9,9,-9,0.09,15.21,41.864439,29.04,230.17295
AOML_Explorer,Ex0538E,262.058,19092005,1:24:13,26.213,-78.871,400.84,-9,1014.67,1010.98,29.45,29.9,36.08,1.67,58.1,32.04,1014.67,107.4,22.1,322,22.13,390.33,2,-9,9,-9,0.09,15.58,36.537396,28.99,230.247695
AOML_Explorer,Ex0538E,262.06,19092005,1:26:46,26.209,-78.854,400.64,-9,1014.62,1011.04,29.46,29.92,36.09,1.69,57.69,32.05,1014.62,107.7,22.2,322,22.13,390.27,2,-9,9,-9,0.08,15.49,37.384961,28.96,230.322872
AOML_Explorer,Ex0538E,262.062,19092005,1:29:19,26.204,-78.837,400.35,-9,1014.81,1010.94,29.47,29.86,36.09,1.69,58.1,32.05,1014.81,107.7,22.2,318,22.13,389.16,2,-9,9,-9,0.09,16.25,32.566285,28.96,230.35435
AOML_Explorer,Ex0538E,262.064,19092005,1:31:52,26.199,-78.821,400.44,-9,1015.26,1011.02,29.46,29.86,36.08,1.69,57.65,32.06,1015.26,107.5,22.1,325,23.68,389.55,2,-9,9,-9,0.1,16.29,44.111702,28.96,230.409099
AOML_Explorer,Ex0538E,262.066,19092005,1:34:25,26.194,-78.804,400.43,-9,1014.9,1010.78,29.42,29.88,36.08,1.68,57.63,32.07,1014.9,108.7,22.3,324,22.65,390.21,2,-9,9,-9,0.09,15.72,40.598055,28.96,230.245476
AOML_Explorer,Ex0538E,262.067,19092005,1:36:58,26.189,-78.788,399.72,-9,1014.91,1011.17,29.42,29.9,36.09,1.65,57.47,32.08,1014.91,107.9,22.3,328,22.13,389.7,2,-9,9,-9,0.09,14.41,44.720276,28.96,230.261652
AOML_Explorer,Ex0538E,262.069,19092005,1:39:31,26.184,-78.771,399.5,-9,1015.12,1011.27,29.44,29.9,36.08,1.67,57.78,32.08,1015.12,108.7,22.4,320,22.13,389.36,2,-9,9,-9,0.09,16,34.592588,28.91,230.278461
AOML_Explorer,Ex0538E,262.071,19092005,1:42:04,26.179,-78.755,399.64,-9,1015.07,1010.86,29.45,29.91,36.09,1.68,57.14,32.08,1015.07,108.2,22.4,323,23.16,389.51,2,-9,9,-9,0.09,16.25,40.040634,28.94,230.283251
AOML_Explorer,Ex0538E,262.073,19092005,1:44:37,26.174,-78.738,399.7,-9,1014.92,1011.11,29.46,29.89,36.09,1.7,58.03,32.08,1014.92,108.5,22.6,329,22.65,389.1,2,-9,9,-9,0.09,14.67,46.899338,29.07,230.386012
AOML_Explorer,Ex0538E,262.074,19092005,1:47:10,26.169,-78.721,399.68,-9,1014.77,1011.05,29.46,29.85,36.09,1.69,57.95,32.09,1014.77,106.9,22.5,323,22.65,388.45,2,-9,9,-9,0.1,15.78,38.016893,28.96,230.427882
AOML_Explorer,Ex0538E,262.076,19092005,1:49:43,26.165,-78.704,399.93,-9,1014.77,1011.25,29.43,29.86,36.08,1.7,57.28,32.09,1014.77,106.8,22.5,322,22.65,389.35,2,-9,9,-9,0.1,15.91,36.713015,28.98,230.414841
AOML_Explorer,Ex0538E,262.078,19092005,1:52:16,26.16,-78.688,399.6,-9,1014.92,1011.22,29.42,29.89,36.08,1.69,56.83,32.09,1014.92,107.3,22.4,328,22.13,389.61,2,-9,9,-9,0.09,14.44,43.848737,28.96,230.465366
AOML_Explorer,Ex0538E,262.08,19092005,1:54:49,26.155,-78.671,399.51,-9,1014.73,1010.55,29.42,29.84,36.11,1.68,57.31,32.1,1014.73,107,22.2,320,24.19,388.69,2,-9,9,-9,0.09,17.79,36.853604,28.99,230.364316
AOML_Explorer,Ex0538E,262.082,19092005,1:57:22,26.151,-78.654,399.41,-9,1014.66,1011.18,29.43,29.84,36.1,1.69,57.85,32.1,1014.66,106.7,22.3,317,22.65,388.53,2,-9,9,-9,0.09,16.88,31.053877,29,230.533844
AOML_Explorer,Ex0538E,262.083,19092005,1:59:55,26.146,-78.638,399.72,-9,1014.95,1010.79,29.4,29.89,36.07,1.7,57.1,32.1,1014.95,107.2,22.5,321,23.16,389.98,2,-9,9,-9,0.1,16.54,36.735699,28.95,230.595685
AOML_Explorer,Ex0538E,262.097,19092005,2:19:07,26.11,-78.51,398.7,-9,1014.69,1011.1,29.45,29.86,36.1,1.69,57.55,32.18,1014.69,107.2,23,322,22.65,387.72,2,-9,9,-9,0.09,15.9,35.753309,28.92,230.486411
AOML_Explorer,Ex0538E,262.098,19092005,2:21:40,26.105,-78.492,399.17,-9,1014.67,1010.74,29.4,29.84,36.08,1.7,57.3,32.18,1014.67,107.2,23.2,320,23.16,388.59,2,-9,9,-9,0.09,16.64,34.321267,28.89,230.456996
AOML_Explorer,Ex0538E,262.1,19092005,2:24:13,26.1,-78.475,399,-9,1015,1011.08,29.36,29.85,36.08,1.68,57.45,32.18,1015,106.5,23.2,322,23.68,389.36,2,-9,9,-9,0.09,16.58,37.676955,28.9,230.546322
AOML_Explorer,Ex0538E,262.102,19092005,2:26:46,26.096,-78.457,398.59,-9,1014.85,1010.89,29.35,29.86,36.09,1.71,57.52,32.18,1014.85,106.1,23.3,324,22.65,389.11,2,-9,9,-9,0.09,15.21,38.274458,28.88,230.597866
AOML_Explorer,Ex0538E,262.104,19092005,2:29:19,26.091,-78.44,398.37,-9,1014.86,1010.86,29.37,29.87,36.09,1.68,57.3,32.19,1014.86,105.5,23.3,321,22.13,388.81,2,-9,9,-9,0.1,15.28,33.350777,28.87,230.815289
AOML_Explorer,Ex0538E,262.105,19092005,2:31:52,26.087,-78.422,398.55,-9,1014.89,1011.07,29.37,29.84,36.08,1.7,57.38,32.18,1014.89,108.1,23.3,323,21.62,388.66,2,-9,9,-9,0.09,14.31,38.344876,28.88,230.762669
AOML_Explorer,Ex0538E,262.107,19092005,2:34:25,26.082,-78.405,398.38,-9,1014.85,1010.99,29.37,29.85,36.07,1.7,57.51,32.19,1014.85,107,23.2,324,22.13,388.53,2,-9,9,-9,0.09,14.53,40.081604,28.84,230.65532
AOML_Explorer,Ex0538E,262.109,19092005,2:36:58,26.077,-78.388,398.27,-9,1014.82,1011.13,29.36,29.85,36.08,1.7,57.65,32.19,1014.82,107.1,23.2,319,22.65,388.6,2,-9,9,-9,0.09,15.94,34.857586,28.82,230.604293
AOML_Explorer,Ex0538E,262.111,19092005,2:39:31,26.072,-78.37,397.96,-9,1014.78,1010.84,29.37,29.84,36.09,1.69,57.97,32.18,1014.78,106.9,23.2,318,22.13,387.99,2,-9,9,-9,0.11,15.62,32.883958,28.84,230.55017
AOML_Explorer,Ex0538E,262.113,19092005,2:42:04,26.067,-78.353,398.03,-9,1014.73,1011.15,29.38,29.81,36.09,1.69,57.45,32.19,1014.73,106.8,23.1,319,22.13,387.49,2,-9,9,-9,0.1,15.43,34.299758,28.79,230.528833
AOML_Explorer,Ex0538E,262.114,19092005,2:44:37,26.063,-78.336,398.43,-9,1014.77,1010.85,29.36,29.87,36.07,1.69,56.23,32.19,1014.77,106.8,23,315,23.16,388.94,2,-9,9,-9,0.09,17.11,31.683538,28.8,230.526033
AOML_Explorer,Ex0538E,262.116,19092005,2:47:10,26.058,-78.318,398.34,-9,1014.65,1010.74,29.36,29.92,36.07,1.71,57.62,32.19,1014.65,106.7,22.7,319,21.62,389.46,2,-9,9,-9,0.09,15.04,33.941834,28.78,230.497705
AOML_Explorer,Ex0538E,262.118,19092005,2:49:43,26.053,-78.301,398.72,-9,1014.56,1010.67,29.43,29.94,36.08,1.71,56.96,32.19,1014.56,107,22.8,317,21.62,389.05,2,-9,9,-9,0.09,15.45,31.504351,28.79,230.508543
AOML_Explorer,Ex0538E,262.12,19092005,2:52:16,26.049,-78.284,399.47,-9,1014.42,1010.64,29.48,29.93,36.09,1.69,56.46,32.18,1014.42,107.1,22.7,311,20.59,388.94,2,-9,9,-9,0.08,15.83,22.80961,28.83,230.668069
AOML_Explorer,Ex0538E,262.121,19092005,2:54:49,26.044,-78.267,400.16,-9,1014.44,1010.8,29.49,29.9,36.09,1.7,57.53,32.18,1014.44,106.9,22.6,315,22.13,388.99,2,-9,9,-9,0.09,16.37,30.034008,28.81,230.749451
AOML_Explorer,Ex0538E,262.123,19092005,2:57:22,26.04,-78.25,400.77,-9,1014.67,1010.76,29.48,29.88,36.07,1.68,57.35,32.18,1014.67,107.1,22.7,312,21.62,389.58,2,-9,9,-9,0.09,16.53,25.763319,28.84,230.725359
AOML_Explorer,Ex0538E,262.125,19092005,2:59:55,26.035,-78.233,400.7,-9,1014.42,1010.85,29.46,29.89,36.07,1.72,56.84,32.18,1014.42,107.3,22.5,315,21.62,389.82,2,-9,9,-9,0.09,15.98,29.313441,28.85,230.6085
AOML_Explorer,Ex0538E,262.14,19092005,3:21:40,25.987,-78.093,400.49,-9,1014.42,1010.28,29.47,29.99,36.1,1.69,25.81,32.23,1014.42,117.2,22.4,305,22.65,390.98,2,-9,9,-9,0.11,19.17,28.810084,28.86,230.46372
AOML_Explorer,Ex0538E,262.142,19092005,3:24:13,25.979,-78.078,401.51,-9,1014.03,1009.98,29.52,30.01,36.08,1.68,25.22,32.23,1014.03,117.3,22.3,306,22.65,391.27,2,-9,9,-9,0.12,19.07,29.440345,28.88,230.134992
AOML_Explorer,Ex0538E,262.144,19092005,3:26:46,25.972,-78.062,402.41,-9,1014.37,1010.4,29.54,30.03,36.05,1.68,25.41,32.23,1014.37,117.4,22.3,304,22.65,392.34,2,-9,9,-9,0.12,19.5,27.497927,28.82,229.934208
AOML_Explorer,Ex0538E,262.145,19092005,3:29:19,25.965,-78.047,402.91,-9,1014.18,1010.44,29.55,30.1,36.04,1.71,25.78,32.23,1014.18,118.1,22.2,307,22.65,393.52,2,-9,9,-9,0.12,18.92,31.311382,28.87,229.34518
AOML_Explorer,Ex0538E,262.147,19092005,3:31:52,25.958,-78.031,403.46,-9,1014.23,1010.51,29.63,30.13,36.03,1.71,25.07,32.23,1014.23,117.7,22.3,311,21.1,393.22,2,-9,9,-9,0.13,16.74,32.755864,28.86,228.861014
AOML_Explorer,Ex0538E,262.149,19092005,3:34:25,25.95,-78.016,404.44,-9,1014.3,1010.43,29.65,30.09,36.03,1.7,25.53,32.23,1014.3,122.1,22.4,300,21.1,393.43,2,-9,9,-9,0.13,18.95,25.98595,28.84,228.381236
AOML_Explorer,Ex0538E,262.151,19092005,3:36:58,25.941,-78.002,405.84,-9,1014.15,1009.84,29.67,30.03,36.06,1.68,25.56,32.22,1014.15,128,22.5,302,21.62,393.59,2,-9,9,-9,0.13,19.03,34.245612,28.83,228.11357
AOML_Explorer,Ex0538E,262.152,19092005,3:39:31,25.931,-77.988,407.46,-9,1014.13,1010.19,29.61,30.05,36.05,1.68,26.09,32.22,1014.13,123.8,22.3,304,22.13,396.33,2,-9,9,-9,0.12,19.22,32.313002,28.83,229.168212
AOML_Explorer,Ex0538E,262.154,19092005,3:42:04,25.924,-77.972,408.34,-9,1014.1,1010.38,29.58,30,36.05,1.69,25.14,32.22,1014.1,116.1,22.1,308,20.59,396.93,2,-9,9,-9,0.16,17.09,26.704449,28.88,228.866359
AOML_Explorer,Ex0538E,262.156,19092005,3:44:37,25.918,-77.956,408.54,-9,1014.37,1010.18,29.58,29.94,36.06,1.7,25.79,32.22,1014.37,109.5,22.1,315,21.1,396.31,2,-9,9,-9,0.16,16,28.993532,28.81,228.933259
AOML_Explorer,Ex0538E,262.158,19092005,3:47:10,25.913,-77.94,408.06,-9,1014.4,1010.42,29.54,30.01,36.13,1.67,25.28,32.22,1014.4,103.5,22,316,23.16,397.54,2,-9,9,-9,0.12,17.58,28.030573,28.82,229.753919
AOML_Explorer,Ex0538E,262.161,19092005,3:52:16,25.906,-77.906,407.97,-9,1014.48,1010.3,29.57,29.98,36.11,1.69,25.63,32.21,1014.48,103.2,22.4,315,22.65,396.62,2,-9,9,-9,0.16,17.15,25.405455,28.86,229.605404
AOML_Explorer,Ex0538E,262.163,19092005,3:54:49,25.902,-77.889,407,-9,1014.09,1010.22,29.54,30.01,36.16,1.7,25.51,32.21,1014.09,102.8,22.2,314,23.68,396.38,2,-9,9,-9,0.14,18.21,26.352351,28.87,229.848091
AOML_Explorer,Ex0538E,262.165,19092005,3:57:22,25.899,-77.872,407.92,-9,1014.08,1010.45,29.53,30.02,36.17,1.7,25.29,32.21,1014.08,101.9,22,317,22.13,397.44,2,-9,9,-9,0.14,16.23,27.388982,28.86,229.867036
AOML_Explorer,Ex0538E,262.167,19092005,3:59:55,25.896,-77.855,407.34,-9,1014.15,1010.57,29.54,30.03,36.18,1.68,25.26,32.21,1014.15,101.8,21.9,314,22.65,397.02,2,-9,9,-9,0.13,17.3,24.627516,28.84,229.565375
AOML_Explorer,Ex0538E,262.18,19092005,4:19:07,25.872,-77.731,403.58,-9,1013.8,1009.76,29.38,29.86,36.06,1.7,26.14,32.27,1013.8,103.3,21.6,306,23.16,393.2,2,-9,9,-9,0.12,19.51,17.5508,28.82,230.106074
AOML_Explorer,Ex0538E,262.182,19092005,4:21:40,25.869,-77.714,402.03,-9,1013.86,1009.69,29.41,29.88,36.06,1.69,25.54,32.28,1013.86,103.7,21.6,308,23.68,391.49,2,-9,9,-9,0.12,19.63,20.497939,28.83,230.046263
AOML_Explorer,Ex0538E,262.183,19092005,4:24:13,25.865,-77.698,401.87,-9,1014.02,1009.87,29.38,29.88,36.07,1.68,26.42,32.28,1014.02,103.1,21.8,313,23.16,391.92,2,-9,9,-9,0.12,18.11,24.812464,28.96,230.087613
AOML_Explorer,Ex0538E,262.185,19092005,4:26:46,25.862,-77.681,402.09,-9,1014.17,1009.97,29.4,29.91,36.06,1.67,26.24,32.28,1014.17,102.5,21.8,327,23.68,392.34,2,-9,9,-9,0.12,15.93,42.931552,29,230.216852
AOML_Explorer,Ex0538E,262.187,19092005,4:29:19,25.858,-77.665,402.34,-9,1014.05,1010.44,29.45,29.95,36.07,1.67,26.44,32.27,1014.05,103.3,21.7,317,23.16,392.28,2,-9,9,-9,0.12,17.36,29.859425,28.98,230.173761
AOML_Explorer,Ex0538E,262.189,19092005,4:31:52,25.855,-77.648,402.83,-9,1013.97,1010.3,29.49,29.95,36.07,1.68,26.24,32.28,1013.97,102.6,22,321,23.16,392.05,2,-9,9,-9,0.11,16.47,33.837443,28.87,230.111572
AOML_Explorer,Ex0538E,262.191,19092005,4:34:25,25.851,-77.631,403.25,-9,1014.08,1010.18,29.51,29.95,36.08,1.69,26.4,32.28,1014.08,102.8,21.7,320,20.59,392.29,2,-9,9,-9,0.11,14.49,28.529241,28.8,230.125422
AOML_Explorer,Ex0538E,262.192,19092005,4:36:58,25.847,-77.615,403.66,-9,1014.12,1010.44,29.51,29.94,36.08,1.69,26.28,32.27,1014.12,105,21.9,318,21.62,392.61,2,-9,9,-9,0.12,15.78,29.843081,28.78,230.156067
AOML_Explorer,Ex0538E,262.194,19092005,4:39:31,25.844,-77.598,404.1,-9,1014.15,1010.38,29.51,29.92,36.08,1.69,25.9,32.27,1014.15,104.4,22.3,318,21.62,392.78,2,-9,9,-9,0.11,15.56,29.537552,28.71,230.080387
AOML_Explorer,Ex0538E,262.196,19092005,4:42:04,25.84,-77.582,404.12,-9,1014.08,1010.38,29.49,29.98,36.1,1.68,27.05,32.27,1014.08,104.2,22.2,320,22.65,393.89,2,-9,9,-9,0.11,16.17,33.602072,28.67,230.089524
AOML_Explorer,Ex0538E,262.198,19092005,4:44:37,25.836,-77.564,404.15,-9,1014.12,1010.41,29.51,30.08,36.18,1.68,26.1,32.28,1014.12,103.7,22.8,315,21.1,394.95,2,-9,9,-9,0.11,15.57,23.987795,28.61,229.933513
AOML_Explorer,Ex0538E,262.199,19092005,4:47:10,25.832,-77.548,404.5,-9,1014.09,1010.35,29.59,30.07,36.13,1.69,26.37,32.28,1014.09,104.4,21.9,318,21.1,393.89,2,-9,9,-9,0.11,15.24,28.876178,28.56,229.842397
AOML_Explorer,Ex0538E,262.201,19092005,4:49:43,25.829,-77.529,404.95,-9,1013.99,1010.4,29.61,30.09,36.14,1.67,26.64,32.27,1013.99,101.7,24.6,317,20.07,394.39,2,-9,9,-9,0.1,13.78,20.630837,28.54,229.937359
AOML_Explorer,Ex0538E,262.203,19092005,4:52:16,25.825,-77.511,406.34,-9,1014.04,1010.28,29.64,30.09,36.15,1.69,27.19,32.27,1014.04,101.6,24.9,319,22.13,395.38,2,-9,9,-9,0.1,14.98,26.856734,28.58,230.059308
AOML_Explorer,Ex0538E,262.205,19092005,4:54:49,25.821,-77.492,406.29,-9,1014.2,1010.66,29.64,30.08,36.14,1.66,27.13,32.27,1014.2,102.5,23.7,321,20.07,395.22,2,-9,9,-9,0.11,13.2,26.463391,28.59,230.124472
AOML_Explorer,Ex0538E,262.207,19092005,4:57:22,25.817,-77.484,406.08,-9,1013.98,1010.5,29.64,30.08,36.14,1.69,27.02,32.27,1013.98,108.9,17.7,316,21.62,394.85,2,-9,9,-9,0.1,17.34,34.140244,28.6,229.901241
AOML_Explorer,Ex0538E,262.208,19092005,4:59:55,25.813,-77.466,406.08,-9,1014.1,1010.2,29.63,30.06,36.14,1.7,26.94,32.27,1014.1,107.9,20.8,314,21.1,394.85,2,-9,9,-9,0.1,16.3,28.889365,28.65,229.934776
AOML_Explorer,Ex0538E,262.223,19092005,5:21:40,25.775,-77.32,404.53,-9,1013.49,1009.4,29.62,29.93,36.15,1.68,25.97,32.34,1013.49,107.3,22.6,318,24.19,391.34,2,-9,9,-9,0.11,18.04,34.677475,28.92,229.824663
AOML_Explorer,Ex0538E,262.225,19092005,5:24:13,25.771,-77.303,406.07,-9,1013.5,1009.63,29.57,29.88,36.12,1.66,26.03,32.35,1013.5,107.3,22.4,313,24.19,393.08,2,-9,9,-9,0.11,19.01,29.281218,28.96,230.062517
AOML_Explorer,Ex0538E,262.227,19092005,5:26:46,25.766,-77.286,407.54,-9,1013.35,1009.13,29.48,29.88,36.14,1.7,26.23,32.35,1013.35,107.3,22.4,320,23.68,395.72,2,-9,9,-9,0.1,17.15,37.052179,28.92,230.004031
AOML_Explorer,Ex0538E,262.229,19092005,5:29:19,25.761,-77.269,406.77,-9,1013.62,1009.59,29.46,29.85,36.12,1.66,26.25,32.35,1013.62,106.6,22.4,314,24.19,394.92,2,-9,9,-9,0.11,18.87,29.483907,28.9,230.302047
AOML_Explorer,Ex0538E,262.23,19092005,5:31:52,25.758,-77.252,405.51,-9,1013.46,1009.44,29.44,29.84,36.1,1.67,26.26,32.35,1013.46,100.9,22.1,321,23.16,393.75,2,-9,9,-9,0.12,16.64,31.006738,28.96,230.140556
AOML_Explorer,Ex0538E,262.232,19092005,5:34:25,25.755,-77.235,405.05,-9,1013.34,1009.79,29.42,29.85,36.09,1.67,25.68,32.35,1013.34,96.6,22.2,320,23.16,393.66,2,-9,9,-9,0.12,16.76,25.767861,28.93,230.184009
AOML_Explorer,Ex0538E,262.234,19092005,5:36:58,25.754,-77.218,403.77,-9,1013.56,1009.7,29.42,29.86,36.1,1.68,24.54,32.35,1013.56,94.9,22.3,322,23.16,392.59,2,-9,9,-9,0.12,16.25,27.073384,28.87,230.183938
AOML_Explorer,Ex0538E,262.236,19092005,5:39:31,25.752,-77.2,404.32,-9,1013.57,1010,29.43,29.82,36.11,1.71,25.37,32.35,1013.57,94.3,22.4,333,23.68,392.53,2,-9,9,-9,0.11,14.74,42.574692,28.84,230.29847
AOML_Explorer,Ex0538E,262.238,19092005,5:42:04,25.751,-77.183,404.91,-9,1013.42,1009.46,29.42,29.85,36.09,1.69,25.56,32.35,1013.42,96.7,22.2,330,25.22,393.56,2,-9,9,-9,0.11,16.83,42.112762,29.06,230.103351
AOML_Explorer,Ex0538E,262.239,19092005,5:44:37,25.749,-77.165,405.13,-9,1013.56,1009.46,29.41,29.88,36.08,1.69,25.62,32.35,1013.56,95.9,22.1,330,24.71,394.38,2,-9,9,-9,0.12,16.23,42.04274,29.06,229.947112
AOML_Explorer,Ex0538E,262.241,19092005,5:47:10,25.747,-77.148,405.54,-9,1013.53,1009.6,29.43,29.76,36.16,1.66,25.62,32.35,1013.53,96,22.1,336,24.19,392.9,2,-9,9,-9,0.11,14.86,50.686931,29.04,229.934737
AOML_Explorer,Ex0538E,262.243,19092005,5:49:43,25.746,-77.131,405.06,-9,1013.51,1009.68,29.43,29.83,36.27,1.66,25.85,32.35,1013.51,96.2,22.1,331,21.62,393.32,2,-9,9,-9,0.11,13.24,38.881923,29,230.292151
AOML_Explorer,Ex0538E,262.245,19092005,5:52:16,25.744,-77.114,405,-9,1013.57,1009.25,29.37,29.87,36.32,1.67,25.2,32.35,1013.57,96.5,22,331,24.19,394.75,2,-9,9,-9,0.1,15.67,42.952851,28.93,229.978465
AOML_Explorer,Ex0538E,262.246,19092005,5:54:49,25.742,-77.097,406.1,-9,1013.5,1009.85,29.41,29.91,36.38,1.68,25.42,32.35,1013.5,96.7,21.9,332,23.68,395.77,2,-9,9,-9,0.09,15.13,43.588054,29.09,229.820373
AOML_Explorer,Ex0538E,262.248,19092005,5:57:22,25.74,-77.079,407.95,-9,1013.48,1009.69,29.46,29.91,36.39,1.67,25.47,32.35,1013.48,96.2,22,333,22.65,396.85,2,-9,9,-9,0.08,13.91,43.434694,29.08,229.852284
AOML_Explorer,Ex0538E,262.25,19092005,5:59:55,25.738,-77.062,409.84,-9,1013.25,1009.36,29.48,29.92,36.41,1.66,25.59,32.35,1013.25,96.9,22,326,22.65,398.33,2,-9,9,-9,0.08,15.22,33.225229,29,229.441093
AOML_Explorer,Ex0538E,262.263,19092005,6:19:07,25.725,-76.933,407.11,-9,1013.06,1009.23,29.32,29.7,36.33,1.7,25,32.4,1013.06,95.6,22.1,333,23.68,394.91,2,-9,9,-9,0.09,14.69,45.683215,28.97,230.949686
AOML_Explorer,Ex0538E,262.265,19092005,6:21:40,25.723,-76.916,408.41,-9,1013.05,1008.75,29.3,29.71,36.31,1.7,25.34,32.4,1013.05,95.1,22.1,330,23.68,396.71,2,-9,9,-9,0.09,15.17,40.707979,29,230.725664
AOML_Explorer,Ex0538E,262.267,19092005,6:24:13,25.722,-76.898,409.24,-9,1013.09,1008.99,29.29,29.77,36.31,1.68,25.32,32.39,1013.09,95,22,321,23.16,398.58,2,-9,9,-9,0.1,16.25,28.195124,29.09,231.159429
AOML_Explorer,Ex0538E,262.269,19092005,6:26:46,25.72,-76.881,409.45,-9,1012.91,1009.3,29.31,29.86,36.31,1.68,24.59,32.39,1012.91,94.4,21.9,331,24.19,399.55,2,-9,9,-9,0.09,15.41,43.823517,29.01,230.616733